Date String (YYYY-MM-DD hh:mm:ss) UTC,Instrument flags,absolute air pressure of the measurement (hPa),sample flow rate (lpm),inlet stack bypass flow (lpm),air temperature of the measurement (°C),ambient temperature measured by the external sensor (°C),aerosol sample conditioner tube jacket temperature (°C),OPC LED temperature (°C),internal box temperature (°C),relative humidity of the measurement (%),span deviation,mass concentration of particles derived from Lorenz-Mie calculation of OPC scattering (μg/m³),mass concentration of particles derived from Lorenz-Mie calculation of OPC scattering (μg/m³),mass concentration of particles derived from Lorenz-Mie calculation of OPC scattering (μg/m³)
DateTimeUTC,F1_M11,P_M11,Q1_M11,Q2_M11,T1_M11,T2_M11,T3_M11,T4_M11,T5_M11,U1_M11,ZSPAN_M11,X0_M11,X2_M11,X1_M11
2023-06-17 10:00:00,SystemResetWarning,0831.8,5.00,000.00,030.2,028.5,000.0,038.9,031.7,25.7,0000.0,0006.30,0004.05,0003.81
2023-06-17 10:01:00,SystemResetWarning,0831.8,5.01,000.00,030.2,028.5,000.0,038.9,031.7,25.6,0000.0,0006.22,0004.03,0003.81
2023-06-17 10:02:00,SystemResetWarning,0831.9,5.00,000.00,030.2,028.5,000.0,038.9,031.7,25.6,0000.0,0006.23,0004.04,0003.79
2023-06-17 10:03:00,SystemResetWarning,0831.9,5.00,000.00,030.2,028.5,000.0,038.9,031.6,25.7,0000.0,0006.00,0004.03,0003.79
2023-06-17 10:04:00,SystemResetWarning,0831.9,5.01,000.00,030.2,028.4,000.0,038.9,031.6,25.6,0000.0,0006.07,0004.04,0003.79
2023-06-17 10:05:00,SystemResetWarning,0831.8,4.99,000.00,030.1,028.4,000.0,038.8,031.6,25.6,0000.0,0006.12,0004.05,0003.79
2023-06-17 10:06:00,SystemResetWarning,0831.8,4.99,000.00,030.1,028.4,000.0,038.8,031.6,25.6,0000.0,0006.09,0004.05,0003.80
2023-06-17 10:07:00,SystemResetWarning,0831.8,4.99,000.00,030.1,028.4,000.0,038.8,031.6,25.6,0000.0,0006.06,0004.06,0003.80
2023-06-17 10:08:00,SystemResetWarning,0831.9,5.00,000.00,030.1,028.4,000.0,038.8,031.5,25.7,0000.0,0006.02,0004.07,0003.84
2023-06-17 10:09:00,SystemResetWarning,0831.8,5.00,000.00,030.1,028.4,000.0,038.8,031.5,25.8,0000.0,0006.02,0004.09,0003.87
2023-06-17 10:10:00,SystemResetWarning,0831.9,5.00,000.00,030.1,028.3,000.0,038.8,031.5,25.8,0000.0,0006.07,0004.13,0003.90
2023-06-17 10:11:00,SystemResetWarning,0831.8,5.00,000.00,030.1,028.3,000.0,038.8,031.5,25.9,0000.0,0006.07,0004.14,0003.92
2023-06-17 10:12:00,SystemResetWarning,0831.9,5.00,000.00,030.1,028.3,000.0,038.8,031.5,25.8,0000.0,0006.10,0004.16,0003.93
2023-06-17 10:13:00,SystemResetWarning,0831.8,5.00,000.00,030.1,028.3,000.0,038.8,031.5,25.8,0000.0,0006.15,0004.17,0003.96
2023-06-17 10:14:00,SystemResetWarning,0831.8,5.00,000.00,030.1,028.3,000.0,038.8,031.5,25.7,0000.0,0006.18,0004.19,0003.98
2023-06-17 10:15:00,SystemResetWarning,0831.8,5.00,000.00,030.0,028.3,000.0,038.8,031.5,25.8,0000.0,0006.49,0004.19,0003.99
2023-06-17 10:16:00,SystemResetWarning,0831.9,5.00,000.00,030.0,028.3,000.0,038.8,031.5,25.8,0000.0,0006.68,0004.19,0004.00
2023-06-17 10:17:00,SystemResetWarning,0831.9,5.01,000.00,030.0,028.3,000.0,038.7,031.5,25.8,0000.0,0006.70,0004.20,0004.00
2023-06-17 10:18:00,SystemResetWarning,0831.9,5.00,000.00,030.0,028.3,000.0,038.7,031.5,25.8,0000.0,0006.65,0004.21,0004.02
2023-06-17 10:19:00,SystemResetWarning,0831.9,5.00,000.00,030.0,028.3,000.0,038.7,031.5,25.7,0000.0,0006.61,0004.20,0004.00
2023-06-17 10:20:00,SystemResetWarning,0831.9,5.00,000.00,030.0,028.3,000.0,038.7,031.4,25.7,0000.0,0006.66,0004.20,0003.99
2023-06-17 10:21:00,SystemResetWarning,0832.0,5.00,000.00,030.0,028.3,000.0,038.7,031.4,25.6,0000.0,0006.56,0004.17,0003.96
2023-06-17 10:22:00,SystemResetWarning,0832.0,5.00,000.00,030.0,028.2,000.0,038.7,031.4,25.6,0000.0,0006.82,0004.15,0003.95
2023-06-17 10:23:00,SystemResetWarning,0832.0,5.00,000.00,030.0,028.2,000.0,038.7,031.4,25.6,0000.0,0007.51,0004.15,0003.94
2023-06-17 10:24:00,SystemResetWarning,0832.0,5.00,000.00,030.0,028.2,000.0,038.7,031.4,25.6,0000.0,0007.62,0004.17,0003.93
2023-06-17 10:25:00,SystemResetWarning,0832.0,5.00,000.00,030.0,028.2,000.0,038.7,031.4,25.6,0000.0,0007.62,0004.17,0003.92
2023-06-17 10:26:00,SystemResetWarning,0832.0,5.00,000.00,029.9,028.2,000.0,038.7,031.3,25.5,0000.0,0007.46,0004.16,0003.91
2023-06-17 10:27:00,SystemResetWarning,0832.0,4.99,000.00,029.9,028.2,000.0,038.7,031.3,25.4,0000.0,0007.29,0004.16,0003.89
2023-06-17 10:28:00,SystemResetWarning,0832.0,5.00,000.00,029.9,028.2,000.0,038.7,031.3,25.3,0000.0,0007.34,0004.14,0003.87
2023-06-17 10:29:00,SystemResetWarning,0832.0,5.00,000.00,029.9,028.1,000.0,038.6,031.3,25.4,0000.0,0007.73,0004.13,0003.84
2023-06-17 10:30:00,SystemResetWarning,0832.0,5.00,000.00,029.9,028.1,000.0,038.6,031.2,25.4,0000.0,0008.02,0004.10,0003.81
2023-06-17 10:31:00,SystemResetWarning,0832.0,5.00,000.00,029.8,028.1,000.0,038.6,031.2,25.4,0000.0,0008.00,0004.07,0003.77
2023-06-17 10:32:00,SystemResetWarning,0831.9,5.00,000.00,029.8,028.1,000.0,038.6,031.2,25.4,0000.0,0007.98,0004.05,0003.75
2023-06-17 10:33:00,SystemResetWarning,0832.0,5.00,000.00,029.8,028.1,000.0,038.6,031.2,25.5,0000.0,0007.81,0004.04,0003.72
2023-06-17 10:34:00,SystemResetWarning,0832.0,5.00,000.00,029.8,028.0,000.0,038.6,031.2,25.5,0000.0,0007.35,0004.01,0003.69
2023-06-17 10:35:00,SystemResetWarning,0832.0,5.00,000.00,029.8,028.0,000.0,038.5,031.2,25.5,0000.0,0007.08,0003.95,0003.67
2023-06-17 10:36:00,SystemResetWarning,0832.0,5.00,000.00,029.8,028.0,000.0,038.5,031.2,25.4,0000.0,0006.86,0003.90,0003.63
2023-06-17 10:37:00,SystemResetWarning,0832.0,5.00,000.00,029.8,028.0,000.0,038.5,031.2,25.4,0000.0,0006.86,0003.87,0003.61
2023-06-17 10:38:00,SystemResetWarning,0832.1,5.00,000.00,029.8,028.0,000.0,038.5,031.2,25.4,0000.0,0006.76,0003.83,0003.57
2023-06-17 10:39:00,SystemResetWarning,0832.0,5.00,000.00,029.8,028.1,000.0,038.5,031.2,25.3,0000.0,0007.43,0003.79,0003.55
2023-06-17 10:40:00,SystemResetWarning,0832.0,5.00,000.00,029.8,028.1,000.0,038.5,031.3,25.2,0000.0,0006.70,0003.75,0003.53
2023-06-17 10:41:00,SystemResetWarning,0832.0,5.00,000.00,029.8,028.1,000.0,038.5,031.3,25.2,0000.0,0006.35,0003.73,0003.53
2023-06-17 10:42:00,SystemResetWarning,0832.0,4.99,000.00,029.8,028.1,000.0,038.5,031.3,25.1,0000.0,0006.89,0003.72,0003.52
2023-06-17 10:43:00,SystemResetWarning,0832.0,5.00,000.00,029.8,028.1,000.0,038.5,031.3,25.1,0000.0,0006.99,0003.70,0003.49
2023-06-17 10:44:00,SystemResetWarning,0832.0,4.99,000.00,029.8,028.1,000.0,038.5,031.3,24.9,0000.0,0006.98,0003.68,0003.48
2023-06-17 10:45:00,SystemResetWarning,0832.0,5.00,000.00,029.8,028.1,000.0,038.5,031.3,24.9,0000.0,0006.88,0003.65,0003.46
2023-06-17 10:46:00,SystemResetWarning,0832.0,5.01,000.00,029.8,028.1,000.0,038.5,031.3,25.0,0000.0,0006.84,0003.63,0003.43
2023-06-17 10:47:00,SystemResetWarning,0832.0,5.01,000.00,029.8,028.1,000.0,038.5,031.3,24.9,0000.0,0007.03,0003.61,0003.41
2023-06-17 10:48:00,SystemResetWarning,0832.0,5.00,000.00,029.8,028.1,000.0,038.5,031.3,24.9,0000.0,0007.24,0003.60,0003.40
2023-06-17 10:49:00,SystemResetWarning,0832.0,5.01,000.00,029.8,028.1,000.0,038.5,031.3,25.0,0000.0,0007.20,0003.60,0003.39
2023-06-17 10:50:00,SystemResetWarning,0831.9,5.01,000.00,029.8,028.1,000.0,038.5,031.3,25.0,0000.0,0006.51,0003.62,0003.39
2023-06-17 10:51:00,SystemResetWarning,0831.9,5.00,000.00,029.8,028.1,000.0,038.5,031.3,25.0,0000.0,0006.36,0003.61,0003.38
2023-06-17 10:52:00,SystemResetWarning,0831.9,4.99,000.00,029.8,028.1,000.0,038.5,031.3,25.0,0000.0,0006.48,0003.63,0003.37
2023-06-17 10:53:00,SystemResetWarning,0831.9,4.99,000.00,029.8,028.1,000.0,038.5,031.3,24.9,0000.0,0005.83,0003.61,0003.36
2023-06-17 10:54:00,SystemResetWarning,0831.9,5.00,000.00,029.8,028.1,000.0,038.5,031.3,24.9,0000.0,0005.71,0003.60,0003.35
2023-06-17 10:55:00,SystemResetWarning,0831.9,5.01,000.00,029.8,028.0,000.0,038.5,031.2,25.0,0000.0,0005.70,0003.59,0003.33
2023-06-17 10:56:00,SystemResetWarning,0831.9,5.00,000.00,029.8,028.0,000.0,038.5,031.2,25.0,0000.0,0005.79,0003.60,0003.33
2023-06-17 10:57:00,SystemResetWarning,0831.9,5.01,000.00,029.8,028.0,000.0,038.5,031.2,24.9,0000.0,0005.86,0003.60,0003.32
2023-06-17 10:58:00,SystemResetWarning,0831.9,5.01,000.00,029.8,028.0,000.0,038.4,031.2,25.0,0000.0,0005.62,0003.59,0003.32
2023-06-17 10:59:00,SystemResetWarning,0831.8,4.99,000.00,029.8,028.0,000.0,038.4,031.2,25.0,0000.0,0005.36,0003.59,0003.31
